FW4052 Weather Reports


time (UTC)temp
C
wind
direction
speed
KPH
gust
KPH
rain 1hr
cm
rain 24hr
cm
rain mn
cm
humidity
%
barometer
mb
20260505065516 12 187 4.8 9.7 0.00 0.00 0.00 92 1002.5
20260505064516 12 200 3.2 9.7 0.00 0.00 0.00 91 1002.4
20260505063515 12 171 4.8 12.9 0.00 0.00 0.00 91 1002.3
20260505062516 12 174 3.2 9.7 0.00 0.00 0.00 90 1002.2
20260505061516 12 154 3.2 9.7 0.00 0.00 0.00 89 1002.1
20260505060516 13 187 4.8 11.3 0.00 0.00 0.00 89 1001.9
20260505055517 13 182 4.8 11.3 0.00 0.00 0.00 88 1001.9
20260505054517 13 223 4.8 11.3 0.00 0.00 0.00 88 1001.7
20260505053517 13 235 3.2 11.3 0.00 0.00 0.00 87 1001.7
20260505052517 13 208 3.2 8.0 0.00 0.00 0.00 86 1001.6
20260505051517 13 238 6.4 12.9 0.00 0.00 0.00 85 1001.6
20260505050518 14 243 6.4 12.9 0.00 0.00 0.00 84 1001.5
20260505041518 16 243 8.0 19.3 0.00 0.00 0.00 78 1001.1
20260505040518 16 239 8.0 17.7 0.00 0.00 0.00 77 1001.0
20260505035515 17 254 8.0 16.1 0.00 0.00 0.00 75 1000.9
20260505034516 17 245 8.0 14.5 0.00 0.00 0.00 73 1000.8
20260505033536 18 249 8.0 16.1 0.00 0.00 0.00 71 1000.7
20260505032516 18 248 8.0 14.5 0.00 0.00 0.00 70 1000.7
20260505031516 19 247 6.4 14.5 0.00 0.00 0.00 68 1000.6
20260505030516 20 264 4.8 12.9 0.00 0.00 0.00 66 1000.5
20260505025516 21 235 4.8 9.7 0.00 0.00 0.00 64 1000.5
20260505024517 21 249 4.8 14.5 0.00 0.00 0.00 62 1000.5
20260505023517 22 262 4.8 12.9 0.00 0.00 0.00 60 1000.5
20260505022517 23 269 4.8 16.1 0.00 0.00 0.00 58 1000.4
20260505021517 23 233 4.8 11.3 0.00 0.00 0.00 56 1000.5
20260505020518 23 233 4.8 11.3 0.00 0.00 0.00 55 1000.5
20260505015517 24 266 4.8 11.3 0.00 0.00 0.00 53 1000.4
20260505014518 24 252 6.4 11.3 0.00 0.00 0.00 53 1000.5
20260505013518 25 219 4.8 12.9 0.00 0.00 0.00 52 1000.5
20260505012558 25 248 4.8 11.3 0.00 0.00 0.00 51 1000.5
20260505011538 25 250 4.8 11.3 0.00 0.00 0.00 50 1000.6
20260505010559 26 243 3.2 9.7 0.00 0.00 0.00 49 1000.8
20260505005536 26 265 4.8 11.3 0.00 0.00 0.00 49 1000.7
20260505004515 26 279 6.4 16.1 0.00 0.00 0.00 49 1000.7
20260505003515 26 241 3.2 11.3 0.00 0.00 0.00 47 1000.8
20260505002516 26 201 4.8 12.9 0.00 0.00 0.00 48 1000.8
20260505001537 26 221 4.8 9.7 0.00 0.00 0.00 47 1000.8
20260505000517 26 213 4.8 11.3 0.00 0.00 0.00 46 1000.9
20260504235517 26 213 6.4 14.5 0.00 0.00 0.00 46 1000.9
20260504234516 26 168 3.2 11.3 0.00 0.00 0.00 46 1000.9
20260504233516 26 229 3.2 8.0 0.00 0.00 0.00 46 1001.0
20260504232557 26 220 6.4 14.5 0.00 0.00 0.00 44 1000.9
20260504231517 26 284 6.4 12.9 0.00 0.00 0.00 47 1001.0
20260504230557 27 173 4.8 12.9 0.00 0.00 0.00 44 1001.2
20260504225518 26 190 4.8 12.9 0.00 0.00 0.00 46 1001.3
20260504224518 26 219 4.8 14.5 0.00 0.00 0.00 47 1001.5
20260504223518 26 205 4.8 11.3 0.00 0.00 0.00 46 1001.6
20260504222518 26 200 4.8 9.7 0.00 0.00 0.00 47 1001.7
20260504221518 26 183 4.8 11.3 0.00 0.00 0.00 46 1001.8
20260504220519 25 296 4.8 12.9 0.00 0.00 0.00 47 1001.7
20260504215536 26 293 6.4 12.9 0.00 0.00 0.00 46 1001.9
20260504214536 25 150 4.8 12.9 0.00 0.00 0.00 47 1002.0
20260504213516 25 234 3.2 9.7 0.00 0.00 0.00 47 1002.1
20260504212516 25 151 6.4 14.5 0.00 0.00 0.00 49 1002.1
20260504211516 25 211 6.4 17.7 0.00 0.00 0.00 47 1002.2
20260504210517 25 154 6.4 14.5 0.00 0.00 0.00 51 1002.1
20260504205516 25 217 4.8 12.9 0.00 0.00 0.00 50 1002.3
20260504204537 25 162 4.8 9.7 0.00 0.00 0.00 53 1002.3
20260504203516 25 208 4.8 11.3 0.00 0.00 0.00 52 1002.5
20260504202516 23 182 6.4 14.5 0.00 0.00 0.00 56 1002.3
20260504201517 23 151 4.8 12.9 0.00 0.00 0.00 57 1002.2
20260504200517 23 131 8.0 14.5 0.00 0.00 0.00 58 1002.2
20260504195517 22 144 4.8 11.3 0.00 0.00 0.00 58 1002.4
20260504194517 22 124 8.0 14.5 0.00 0.00 0.00 60 1002.3
20260504193518 21 122 6.4 12.9 0.00 0.00 0.00 61 1002.4
20260504192518 21 129 6.4 11.3 0.00 0.00 0.00 62 1002.4
20260504191538 21 103 4.8 9.7 0.00 0.00 0.00 62 1002.5
20260504190518 21 112 6.4 9.7 0.00 0.00 0.00 62 1002.6
20260504185518 21 136 4.8 14.5 0.00 0.00 0.00 62 1002.6
20260504184516 20 115 6.4 11.3 0.00 0.00 0.00 62 1002.5
20260504183516 20 130 4.8 11.3 0.00 0.00 0.00 62 1002.6
20260504182536 20 123 4.8 11.3 0.00 0.00 0.00 62 1002.6
20260504181516 20 116 4.8 9.7 0.00 0.00 0.00 60 1002.7
20260504180516 20 152 4.8 11.3 0.00 0.00 0.00 59 1002.8
20260504175517 20 125 4.8 9.7 0.00 0.00 0.00 58 1002.7
20260504174516 20 118 4.8 9.7 0.00 0.00 0.00 58 1002.7
20260504173517 20 104 6.4 9.7 0.00 0.00 0.00 57 1002.7
20260504172517 19 98 4.8 9.7 0.00 0.00 0.00 60 1002.6
20260504171517 18 137 4.8 11.3 0.00 0.00 0.00 59 1002.6
20260504170517 18 112 4.8 11.3 0.00 0.00 0.00 62 1002.5
20260504150516 16 103 1.6 4.8 0.00 0.00 0.00 69 1001.7
20260504140517 14 72 0.0 1.6 0.00 0.00 0.00 73 1001.0
20260504130539 13 264 1.6 4.8 0.00 0.00 0.00 69 1000.3
20260504110517 15 138 0.0 3.2 0.00 0.00 0.00 62 1000.2
20260504100518 15 270 0.0 3.2 0.00 0.00 0.00 59 1000.2
20260504081517 16 284 1.6 4.8 0.00 0.00 0.00 53 1000.2
20260504080517 16 278 3.2 4.8 0.00 0.00 0.00 53 1000.2